Regional Weather Roundup
Issued by NWS

Home | Current Version | Previous Version | Graphics & Text | Print | Product List | Glossary On
Versions: 1 2 3 4 5 6 7 8 9 10 11 12 13 14 15 16 17 18 19 20 21 22 23 24 25 26 27 28 29 30 31 32 33 34 35 36 37 38 39 40 41 42 43 44 45 46 47 48 49 50
000
ASUS43 KDMX 232201
RWRIA

WEATHER ROUNDUP FOR IOWA
NATIONAL WEATHER SERVICE DES MOINES IA
500 PM CDT MON APR 23 2018

NOTE: "FAIR" INDICATES FEW OR NO CLOUDS BELOW 12,000 FEET WITH NO
SIGNIFICANT WEATHER AND/OR OBSTRUCTIONS TO VISIBILITY.

* - THESE STATIONS ARE NOT NWS STATIONS...THUS NOT UNDER NWS
QUALITY CONTROL.  THEY ALSO DO NOT REPORT WEATHER SUCH
AS PRECIPITATION OR FOG.

IAZ001>003-012>014-020>022-031>034-043>046-232300-
   NORTHWEST IOWA

CITY           SKY/WX    TMP DP  RH WIND       PRES   REMARKS
CARROLL *      PTSUNNY   73  34  23 E9        30.09F
CHEROKEE *     SUNNY     68  37  31 E8        30.12F
DENISON *      SUNNY     70  32  24 VRB6G15   30.10F
LE MARS *      SUNNY     72  28  20 SE9       30.10F
ORANGE CITY *  SUNNY     72  36  26 SE7       30.12S
SHELDON *      SUNNY     68  34  28 VRB5G15   30.11F
SIOUX CITY     SUNNY     73  31  21 NE6       30.09F
SPENCER        SUNNY     66  35  31 NE9       30.14F
STORM LAKE *   SUNNY     66  37  34 NE9       30.12F
$$

IAZ055>058-069>071-079>083-090>094-232300-
   SOUTHWEST IOWA

CITY           SKY/WX    TMP DP  RH WIND       PRES   REMARKS
ATLANTIC *     SUNNY     72  32  23 VRB6G13   30.07F
AUDUBON *      SUNNY     72  23  16 N6        30.10S
CLARINDA *     SUNNY     73  28  19 E10G18    30.08F
COUNCIL BLFS * SUNNY     73  28  19 E8        30.07F
CRESTON *      SUNNY     72  28  20 NE8G16    30.08F
HARLAN  *      SUNNY     73  28  19 NE12      30.11F
LAMONI         SUNNY     73  32  22 NE14      30.05F
RED OAK *      SUNNY     73  34  23 VRB8      30.07S
SHENANDOAH *   SUNNY     73  30  20 E7        30.06F
$$

IAZ047>049-059>061-072>074-084-232300-
   CENTRAL IOWA

CITY           SKY/WX    TMP DP  RH WIND       PRES   REMARKS
AMES           SUNNY     72  31  22 NE12      30.08F
ANKENY *       SUNNY     73  28  19 NE13G20   30.08F
BOONE *        SUNNY     72  30  21 NE10G17   30.08F
CHARITON *     MOSUNNY   72  28  20 NE14      30.05F
DES MOINES     MOSUNNY   73  27  18 E9        30.07F
GRINNELL*      SUNNY     72  27  18 NE13G18   30.08S
KNOXVILLE *    SUNNY     72  27  18 NE10G21   30.05S
MARSHALLTOWN   SUNNY     71  29  21 NE13G22   30.08F
NEWTON *       SUNNY     72  28  20 NE13G20   30.07S
PELLA *        SUNNY     73  24  15 NE8G17    30.07F
$$

IAZ004>006-015-016-023>025-035-036-232300-
   NORTH CENTRAL IOWA

CITY           SKY/WX    TMP DP  RH WIND       PRES   REMARKS
ALGONA *       SUNNY     64  41  42 E6G13     30.14S
CLARION *      SUNNY     68  36  30 NE10      30.12F
ESTHERVILLE    SUNNY     60  43  53 NE9       30.15F
FORT DODGE *   SUNNY     68  37  32 E10       30.12F
MASON CITY     SUNNY     66  41  40 NE8       30.14F
FOREST CITY *  FAIR      64  37  36 NE6       30.14S
WEBSTER CITY * SUNNY     70  34  26 NE13G18   30.08F
IOWA FALLS *   FAIR      71  32  24 NE12G18   30.11F
$$

IAZ007>011-017>019-026>030-037>042-050>054-066-232300-
   NORTHEAST IOWA

CITY           SKY/WX    TMP DP  RH WIND       PRES   REMARKS
CEDAR RAPIDS   FAIR      72  27  18 NE14      30.07F
CHARLES CITY * FAIR      68  34  28 N9        30.12F
CLINTON *      FAIR      69  33  26 NE16      30.07S
DECORAH *      FAIR      66  27  22 VRB8      30.11F
DUBUQUE        FAIR      67  25  20 E14       30.10S
MONTICELLO *   FAIR      72  23  16 NE10G20   30.08F
OELWEIN *      FAIR      70  28  21 NE10      30.11F
WATERLOO       FAIR      71  31  22 NE13      30.09F
$$

IAZ064-065-067-068-078-232300-
   EAST CENTRAL IOWA

CITY           SKY/WX    TMP DP  RH WIND       PRES   REMARKS
DAVENPORT      FAIR      70  30  22 NE12      30.07F
IOWA CITY      FAIR      69  25  19 NE10      30.08F
MT. PLEASANT * PTSUNNY   72  30  21 NE8G16    30.03F
MUSCATINE *    FAIR      72  32  23 E14G20    30.05S
QUAD CITIES    FAIR      72  32  23 NE12      30.03F
$$

IAZ062-063-075>077-085>089-095>099-232300-
   SOUTHEAST IOWA

CITY           SKY/WX    TMP DP  RH WIND       PRES   REMARKS
BURLINGTON     PTSUNNY   71  31  22 NE12      30.02F
FAIRFIELD *    CLOUDY    70  25  18 E14       30.05S
FORT MADISON * CLOUDY    72  34  25 NE15G22   30.03S
KEOKUK *       MOSUNNY   70  30  23 NE12G21   30.01S
OSKALOOSA *    FAIR      71  22  15 NE14      30.06S
CENTERVILLE *    N/A     72  27  18 NE13G20   30.06S
OTTUMWA        CLOUDY    71  25  17 NE10      30.05F
WASHINGTON *   PTSUNNY   70  27  19 NE13      30.07S
$$

ABBREVIATIONS USED IN REMARKS
   TC - TEMPERATURES IN CELSIUS
  WCI - WIND CHILL INDEX
   HX - HEAT INDEX
  VSB - VISIBILITY
$$




USA.gov is the U.S. government's official web portal to all federal, state and local government web resources and services.